Location: ??
(35.5653°N, 139.6194°E)
Time: 18:55:09
(UTC+00:00)

Cosmos 1151 Rocket - Pass Details

Date: 20 November 2019
Orbit: 592 x 616 km, 82.5° (Epoch: 14 December)

Event Time Altitude Azimuth Distance (km) Brightness Sun altitude
Exits shadow 19:36:03 - 358° (N) 2,262 5.8 -21.5°
Reaches altitude 10° 19:36:47 10° 359° (N) 1,970 5.5 -21.3°
Maximum altitude 19:41:07 67° 82° (E) 660 3.3 -20.5°
Drops below altitude 10° 19:45:23 10° 165° (SSE) 1,941 5.9 -19.6°
Sets 19:47:35 0° 168° (SSE) 2,836 6.8 -19.2°
